Regional Weather Roundup
Issued by NWS

Home | Current Version | Previous Version | Graphics & Text | Print | Product List | Glossary On
Versions: 1 2 3 4 5 6 7 8 9 10 11 12 13 14 15 16 17 18 19 20 21 22 23 24 25 26 27 28 29 30 31 32 33 34 35 36 37 38 39 40 41 42 43 44 45 46 47 48 49 50
000
ASUS43 KBIS 252059
RWRND

NORTH DAKOTA REGIONAL WEATHER ROUNDUP
NATIONAL WEATHER SERVICE BISMARCK ND
400 PM CDT SAT OCT 25 2014

NOTE: "FAIR" INDICATES FEW OR NO CLOUDS BELOW 12,000 FEET WITH NO
SIGNIFICANT WEATHER AND/OR OBSTRUCTIONS TO VISIBILITY.


NDZ001>003-009>011-017-252200-
NORTHWEST NORTH DAKOTA

CITY           SKY/WX    TMP DP  RH WIND       PRES   REMARKS
WILLISTON      SUNNY     63  29  27 SE12      30.00F
MINOT          PTSUNNY   59  24  26 S7        30.05F
$$

NDZ018>021-031>035-040>046-252200-
SOUTHWEST NORTH DAKOTA

CITY           SKY/WX    TMP DP  RH WIND       PRES   REMARKS
BISMARCK       SUNNY     65  31  28 SE8       30.08F
GARRISON         N/A     61  30  31 SE6       30.05F
HETTINGER ARPT SUNNY     65  30  27 SE16G23   30.02F
$$

NDZ004>008-012>016-024-026-027-054-252200-
NORTHEAST NORTH DAKOTA

CITY           SKY/WX    TMP DP  RH WIND       PRES   REMARKS
GRAND FORKS    MOSUNNY   60  25  26 NW13G20   30.05F
DEVILS LAKE    SUNNY     57  25  28 W12       30.06S
$$

NDZ022-023-025-028>030-036>039-047>053-252200-
SOUTHEAST NORTH DAKOTA

CITY           SKY/WX    TMP DP  RH WIND       PRES   REMARKS
FARGO          SUNNY     61  25  25 NW17      30.07F
$$




USA.gov is the U.S. government's official web portal to all federal, state and local government web resources and services.